contact:dominique.lefevre@mio.osupytheas.fr, maurice.libes@osupytheas.fr, didier.mallarino@osupytheas.fr
Project:EMSO http://www.emso-fr.org/EMSO-France
Depth: 2436.0 m
Title:EMSO Ligure Ouest : Data MII capteur OXYGEN
DateTime,Latitude,Longitude,Optode-Type,Optode_Serial,Oxygen,Saturation_Oxygen,Temperature
DateTime,Latitude,Longitude,Optode-Type,Optode_Serial,µmol.l-1,%,degC
2017-10-13T00:01:54,42.805,6.029,4330,1995,199.275,60.939,13.287
2017-10-13T00:04:54,42.805,6.029,4330,1995,199.042,60.867,13.286
2017-10-13T00:07:54,42.805,6.029,4330,1995,199.125,60.892,13.286
2017-10-13T00:10:54,42.805,6.029,4330,1995,199.193,60.913,13.286
2017-10-13T00:13:54,42.805,6.029,4330,1995,199.208,60.918,13.286
2017-10-13T00:16:54,42.805,6.029,4330,1995,199.204,60.918,13.287
2017-10-13T00:19:54,42.805,6.029,4330,1995,199.372,60.969,13.286
2017-10-13T00:22:54,42.805,6.029,4330,1995,199.327,60.954,13.285
2017-10-13T00:25:54,42.805,6.029,4330,1995,199.029,60.862,13.286
2017-10-13T00:28:54,42.805,6.029,4330,1995,199.048,60.869,13.286
2017-10-13T00:31:54,42.805,6.029,4330,1995,199.286,60.941,13.285
2017-10-13T00:34:54,42.805,6.029,4330,1995,199.163,60.903,13.285
2017-10-13T00:37:54,42.805,6.029,4330,1995,199.221,60.921,13.286
2017-10-13T00:40:54,42.805,6.029,4330,1995,199.140,60.897,13.286
2017-10-13T00:43:54,42.805,6.029,4330,1995,199.160,60.903,13.286
2017-10-13T00:46:54,42.805,6.029,4330,1995,199.160,60.903,13.286
2017-10-13T00:49:54,42.805,6.029,4330,1995,199.300,60.945,13.285
2017-10-13T00:52:54,42.805,6.029,4330,1995,199.263,60.934,13.286
2017-10-13T00:55:54,42.805,6.029,4330,1995,199.377,60.969,13.286
2017-10-13T00:58:54,42.805,6.029,4330,1995,199.302,60.946,13.285
2017-10-13T01:01:54,42.805,6.029,4330,1995,199.246,60.929,13.286
2017-10-13T01:04:54,42.805,6.029,4330,1995,199.074,60.876,13.286
2017-10-13T01:07:54,42.805,6.029,4330,1995,199.205,60.916,13.285
2017-10-13T01:10:54,42.805,6.029,4330,1995,199.039,60.865,13.285
2017-10-13T01:13:54,42.805,6.029,4330,1995,199.036,60.865,13.286
2017-10-13T01:16:54,42.805,6.029,4330,1995,199.168,60.905,13.286
2017-10-13T01:19:54,42.805,6.029,4330,1995,199.231,60.924,13.286
2017-10-13T01:22:54,42.805,6.029,4330,1995,199.140,60.896,13.285
2017-10-13T01:25:54,42.805,6.029,4330,1995,199.338,60.957,13.286
2017-10-13T01:28:54,42.805,6.029,4330,1995,199.228,60.923,13.286
2017-10-13T01:31:54,42.805,6.029,4330,1995,199.110,60.887,13.286
2017-10-13T01:34:54,42.805,6.029,4330,1995,199.214,60.919,13.286
2017-10-13T01:37:54,42.805,6.029,4330,1995,199.174,60.908,13.286
2017-10-13T01:40:54,42.805,6.029,4330,1995,199.309,60.948,13.286
2017-10-13T01:43:54,42.805,6.029,4330,1995,199.275,60.938,13.286
2017-10-13T01:46:54,42.805,6.029,4330,1995,199.191,60.912,13.285
2017-10-13T01:49:54,42.805,6.029,4330,1995,199.393,60.974,13.286
2017-10-13T01:52:54,42.805,6.029,4330,1995,199.434,60.986,13.285
2017-10-13T01:55:54,42.805,6.029,4330,1995,199.446,60.990,13.285
2017-10-13T01:58:54,42.805,6.029,4330,1995,199.572,61.028,13.285
2017-10-13T02:01:54,42.805,6.029,4330,1995,199.404,60.977,13.286
2017-10-13T02:04:54,42.805,6.029,4330,1995,199.438,60.988,13.286
2017-10-13T02:07:54,42.805,6.029,4330,1995,199.432,60.986,13.286
2017-10-13T02:10:54,42.805,6.029,4330,1995,199.296,60.944,13.286
2017-10-13T02:13:54,42.805,6.029,4330,1995,199.281,60.939,13.285
2017-10-13T02:16:54,42.805,6.029,4330,1995,199.565,61.027,13.286
2017-10-13T02:19:54,42.805,6.029,4330,1995,199.646,61.051,13.286
2017-10-13T02:22:54,42.805,6.029,4330,1995,199.608,61.039,13.285
2017-10-13T02:25:54,42.805,6.029,4330,1995,199.604,61.038,13.285
2017-10-13T02:28:54,42.805,6.029,4330,1995,199.618,61.042,13.285
2017-10-13T02:31:54,42.805,6.029,4330,1995,199.799,61.098,13.285
2017-10-13T02:34:54,42.805,6.029,4330,1995,199.707,61.070,13.286
2017-10-13T02:37:54,42.805,6.029,4330,1995,199.468,60.997,13.286
2017-10-13T02:40:54,42.805,6.029,4330,1995,199.662,61.056,13.286
2017-10-13T02:43:54,42.805,6.029,4330,1995,199.726,61.076,13.286
2017-10-13T02:46:54,42.805,6.029,4330,1995,199.720,61.074,13.286
2017-10-13T02:49:54,42.805,6.029,4330,1995,199.625,61.044,13.285
2017-10-13T02:52:54,42.805,6.029,4330,1995,199.575,61.029,13.285
2017-10-13T02:55:54,42.805,6.029,4330,1995,199.610,61.040,13.285
2017-10-13T02:58:54,42.805,6.029,4330,1995,199.713,61.072,13.285
2017-10-13T03:01:54,42.805,6.029,4330,1995,199.725,61.075,13.285
2017-10-13T03:04:54,42.805,6.029,4330,1995,199.760,61.086,13.286
2017-10-13T03:07:54,42.805,6.029,4330,1995,199.631,61.047,13.286
2017-10-13T03:10:54,42.805,6.029,4330,1995,199.440,60.988,13.286
2017-10-13T03:13:54,42.805,6.029,4330,1995,199.549,61.021,13.285
2017-10-13T03:16:54,42.805,6.029,4330,1995,199.496,61.005,13.286
2017-10-13T03:19:54,42.805,6.029,4330,1995,199.548,61.022,13.286
2017-10-13T03:22:54,42.805,6.029,4330,1995,199.344,60.960,13.286
2017-10-13T03:25:53,42.805,6.029,4330,1995,199.464,60.996,13.286
2017-10-13T03:28:53,42.805,6.029,4330,1995,199.508,61.009,13.286
2017-10-13T03:31:53,42.805,6.029,4330,1995,199.414,60.981,13.286
2017-10-13T03:34:53,42.805,6.029,4330,1995,199.273,60.938,13.286
2017-10-13T03:37:53,42.805,6.029,4330,1995,199.403,60.977,13.286
2017-10-13T03:40:53,42.805,6.029,4330,1995,199.355,60.962,13.286
2017-10-13T03:43:53,42.805,6.029,4330,1995,199.435,60.986,13.285
2017-10-13T03:46:53,42.805,6.029,4330,1995,199.374,60.968,13.286
2017-10-13T03:49:53,42.805,6.029,4330,1995,199.358,60.964,13.286
2017-10-13T03:52:53,42.805,6.029,4330,1995,199.409,60.979,13.286
2017-10-13T03:55:53,42.805,6.029,4330,1995,199.349,60.960,13.286
2017-10-13T03:58:53,42.805,6.029,4330,1995,199.308,60.948,13.286
2017-10-13T04:01:53,42.805,6.029,4330,1995,199.192,60.913,13.286
2017-10-13T04:04:53,42.805,6.029,4330,1995,199.190,60.912,13.286
2017-10-13T04:07:53,42.805,6.029,4330,1995,199.107,60.888,13.287
2017-10-13T04:10:53,42.805,6.029,4330,1995,198.934,60.834,13.286
2017-10-13T04:13:53,42.805,6.029,4330,1995,198.962,60.842,13.286
2017-10-13T04:16:53,42.805,6.029,4330,1995,199.023,60.861,13.285
2017-10-13T04:19:53,42.805,6.029,4330,1995,199.146,60.899,13.286
2017-10-13T04:22:53,42.805,6.029,4330,1995,199.127,60.893,13.286
2017-10-13T04:25:53,42.805,6.029,4330,1995,199.159,60.903,13.286
2017-10-13T04:28:53,42.805,6.029,4330,1995,199.068,60.875,13.286
2017-10-13T04:31:53,42.805,6.029,4330,1995,198.857,60.810,13.286
2017-10-13T04:34:53,42.805,6.029,4330,1995,199.008,60.856,13.285
2017-10-13T04:37:53,42.805,6.029,4330,1995,199.044,60.868,13.286
2017-10-13T04:40:53,42.805,6.029,4330,1995,199.078,60.878,13.286
2017-10-13T04:43:53,42.805,6.029,4330,1995,199.131,60.894,13.286
2017-10-13T04:46:53,42.805,6.029,4330,1995,199.090,60.881,13.286
2017-10-13T04:49:53,42.805,6.029,4330,1995,199.160,60.903,13.286
2017-10-13T04:52:53,42.805,6.029,4330,1995,199.024,60.861,13.286
2017-10-13T04:55:53,42.805,6.029,4330,1995,199.026,60.862,13.286
2017-10-13T04:58:53,42.805,6.029,4330,1995,199.043,60.867,13.286
2017-10-13T05:01:53,42.805,6.029,4330,1995,198.989,60.851,13.286
2017-10-13T05:04:53,42.805,6.029,4330,1995,199.114,60.888,13.285
2017-10-13T05:07:53,42.805,6.029,4330,1995,199.005,60.856,13.286
2017-10-13T05:10:53,42.805,6.029,4330,1995,198.945,60.838,13.286
2017-10-13T05:13:53,42.805,6.029,4330,1995,198.981,60.849,13.286
2017-10-13T05:16:53,42.805,6.029,4330,1995,198.887,60.820,13.286
2017-10-13T05:19:53,42.805,6.029,4330,1995,198.945,60.837,13.286
2017-10-13T05:22:53,42.805,6.029,4330,1995,199.069,60.875,13.286
2017-10-13T05:25:53,42.805,6.029,4330,1995,199.020,60.860,13.285
2017-10-13T05:28:53,42.805,6.029,4330,1995,198.949,60.838,13.286
2017-10-13T05:31:53,42.805,6.029,4330,1995,198.968,60.844,13.286
2017-10-13T05:34:53,42.805,6.029,4330,1995,198.714,60.768,13.287
2017-10-13T05:37:53,42.805,6.029,4330,1995,198.854,60.810,13.287
2017-10-13T05:40:53,42.805,6.029,4330,1995,198.869,60.815,13.286
2017-10-13T05:43:53,42.805,6.029,4330,1995,198.765,60.783,13.286
2017-10-13T05:46:53,42.805,6.029,4330,1995,198.901,60.823,13.286
2017-10-13T05:49:53,42.805,6.029,4330,1995,198.764,60.782,13.286
2017-10-13T05:52:53,42.805,6.029,4330,1995,198.857,60.810,13.285
2017-10-13T05:55:53,42.805,6.029,4330,1995,198.827,60.802,13.287
2017-10-13T05:58:53,42.805,6.029,4330,1995,198.846,60.807,13.286
2017-10-13T06:01:53,42.805,6.029,4330,1995,198.904,60.824,13.286
2017-10-13T06:04:53,42.805,6.029,4330,1995,199.035,60.865,13.286
2017-10-13T06:07:53,42.805,6.029,4330,1995,198.940,60.836,13.286
2017-10-13T06:10:53,42.805,6.029,4330,1995,198.931,60.833,13.286
2017-10-13T06:13:53,42.805,6.029,4330,1995,198.680,60.757,13.287
2017-10-13T06:16:53,42.805,6.029,4330,1995,198.755,60.779,13.286
2017-10-13T06:19:53,42.805,6.029,4330,1995,198.865,60.813,13.286
2017-10-13T06:22:53,42.805,6.029,4330,1995,198.778,60.787,13.286
2017-10-13T06:25:53,42.805,6.029,4330,1995,198.863,60.812,13.286
2017-10-13T06:28:53,42.805,6.029,4330,1995,198.801,60.793,13.286
2017-10-13T06:31:53,42.805,6.029,4330,1995,198.925,60.831,13.286
2017-10-13T06:34:53,42.805,6.029,4330,1995,199.037,60.865,13.286
2017-10-13T06:37:53,42.805,6.029,4330,1995,199.030,60.863,13.286
2017-10-13T06:40:53,42.805,6.029,4330,1995,198.937,60.835,13.286
2017-10-13T06:43:53,42.805,6.029,4330,1995,198.842,60.806,13.286
2017-10-13T06:46:53,42.805,6.029,4330,1995,198.715,60.768,13.287
2017-10-13T06:49:53,42.805,6.029,4330,1995,198.681,60.757,13.286
2017-10-13T06:52:53,42.805,6.029,4330,1995,198.670,60.754,13.287
2017-10-13T06:55:53,42.805,6.029,4330,1995,198.601,60.732,13.286
2017-10-13T06:58:53,42.805,6.029,4330,1995,198.494,60.700,13.286
2017-10-13T07:01:53,42.805,6.029,4330,1995,198.513,60.706,13.286
2017-10-13T07:04:53,42.805,6.029,4330,1995,198.559,60.719,13.286
2017-10-13T07:07:53,42.805,6.029,4330,1995,198.540,60.714,13.286
2017-10-13T07:10:53,42.805,6.029,4330,1995,198.748,60.777,13.286
2017-10-13T07:13:53,42.805,6.029,4330,1995,198.611,60.735,13.286
2017-10-13T07:16:53,42.805,6.029,4330,1995,198.783,60.788,13.286
2017-10-13T07:19:53,42.805,6.029,4330,1995,198.654,60.749,13.286
2017-10-13T07:22:53,42.805,6.029,4330,1995,198.502,60.702,13.286
2017-10-13T07:25:53,42.805,6.029,4330,1995,198.496,60.700,13.286
2017-10-13T07:28:53,42.805,6.029,4330,1995,198.553,60.717,13.286
2017-10-13T07:31:53,42.805,6.029,4330,1995,198.814,60.797,13.286
2017-10-13T07:34:53,42.805,6.029,4330,1995,199.092,60.882,13.286
2017-10-13T07:37:53,42.805,6.029,4330,1995,198.850,60.809,13.286
2017-10-13T07:40:53,42.805,6.029,4330,1995,198.541,60.714,13.286
2017-10-13T07:43:53,42.805,6.029,4330,1995,198.554,60.719,13.287
2017-10-13T07:46:53,42.805,6.029,4330,1995,198.509,60.704,13.286
2017-10-13T07:49:53,42.805,6.029,4330,1995,198.607,60.734,13.286
2017-10-13T07:52:53,42.805,6.029,4330,1995,198.751,60.778,13.286
2017-10-13T07:55:53,42.805,6.029,4330,1995,198.712,60.766,13.286
2017-10-13T07:58:53,42.805,6.029,4330,1995,198.853,60.810,13.287
2017-10-13T08:01:53,42.805,6.029,4330,1995,198.644,60.746,13.286
2017-10-13T08:04:53,42.805,6.029,4330,1995,198.524,60.709,13.286
2017-10-13T08:07:53,42.805,6.029,4330,1995,198.534,60.712,13.286
2017-10-13T08:10:53,42.805,6.029,4330,1995,198.636,60.743,13.286
2017-10-13T08:13:53,42.805,6.029,4330,1995,198.529,60.711,13.287
2017-10-13T08:16:53,42.805,6.029,4330,1995,198.616,60.736,13.286
2017-10-13T08:19:53,42.805,6.029,4330,1995,198.740,60.775,13.287
2017-10-13T08:22:53,42.805,6.029,4330,1995,198.453,60.688,13.287
2017-10-13T08:25:53,42.805,6.029,4330,1995,198.209,60.613,13.286
2017-10-13T08:28:53,42.805,6.029,4330,1995,198.507,60.703,13.286
2017-10-13T08:31:53,42.805,6.029,4330,1995,198.719,60.768,13.286
2017-10-13T08:34:53,42.805,6.029,4330,1995,198.691,60.760,13.286
2017-10-13T08:37:53,42.805,6.029,4330,1995,198.412,60.675,13.286
2017-10-13T08:40:53,42.805,6.029,4330,1995,198.494,60.700,13.286
2017-10-13T08:43:53,42.805,6.029,4330,1995,198.629,60.741,13.286
2017-10-13T08:46:53,42.805,6.029,4330,1995,198.698,60.762,13.286
2017-10-13T08:49:53,42.805,6.029,4330,1995,198.768,60.783,13.286
2017-10-13T08:52:53,42.805,6.029,4330,1995,198.677,60.755,13.286
2017-10-13T08:55:53,42.805,6.029,4330,1995,198.755,60.780,13.286
2017-10-13T08:58:53,42.805,6.029,4330,1995,198.828,60.802,13.286
2017-10-13T09:01:53,42.805,6.029,4330,1995,198.745,60.776,13.286
2017-10-13T09:04:53,42.805,6.029,4330,1995,198.733,60.774,13.287
2017-10-13T09:07:53,42.805,6.029,4330,1995,198.910,60.826,13.286
2017-10-13T09:10:53,42.805,6.029,4330,1995,198.726,60.770,13.286
2017-10-13T09:13:53,42.805,6.029,4330,1995,198.843,60.808,13.287
2017-10-13T09:16:53,42.805,6.029,4330,1995,198.950,60.838,13.286
2017-10-13T09:19:53,42.805,6.029,4330,1995,198.686,60.758,13.286
2017-10-13T09:22:53,42.805,6.029,4330,1995,198.787,60.789,13.286
2017-10-13T09:25:53,42.805,6.029,4330,1995,198.656,60.749,13.286
2017-10-13T09:28:53,42.805,6.029,4330,1995,198.554,60.718,13.286
2017-10-13T09:31:53,42.805,6.029,4330,1995,198.588,60.728,13.286
2017-10-13T09:34:53,42.805,6.029,4330,1995,198.605,60.734,13.286
2017-10-13T09:37:53,42.805,6.029,4330,1995,198.542,60.714,13.286
2017-10-13T09:40:53,42.805,6.029,4330,1995,198.461,60.690,13.286
2017-10-13T09:43:53,42.805,6.029,4330,1995,198.429,60.680,13.286
2017-10-13T09:46:53,42.805,6.029,4330,1995,198.763,60.782,13.286
2017-10-13T09:49:53,42.805,6.029,4330,1995,198.818,60.799,13.286
2017-10-13T09:52:53,42.805,6.029,4330,1995,198.675,60.755,13.286
2017-10-13T09:55:53,42.805,6.029,4330,1995,198.674,60.756,13.287
2017-10-13T09:58:53,42.805,6.029,4330,1995,198.770,60.784,13.286
2017-10-13T10:01:53,42.805,6.029,4330,1995,198.695,60.761,13.286
2017-10-13T10:04:53,42.805,6.029,4330,1995,198.651,60.747,13.286
2017-10-13T10:07:53,42.805,6.029,4330,1995,198.702,60.763,13.286
2017-10-13T10:10:53,42.805,6.029,4330,1995,198.781,60.788,13.286
2017-10-13T10:13:53,42.805,6.029,4330,1995,198.808,60.796,13.286
2017-10-13T10:16:53,42.805,6.029,4330,1995,198.848,60.808,13.286
2017-10-13T10:19:53,42.805,6.029,4330,1995,198.655,60.749,13.286
2017-10-13T10:22:53,42.805,6.029,4330,1995,199.068,60.875,13.286
2017-10-13T10:25:53,42.805,6.029,4330,1995,198.976,60.847,13.286
2017-10-13T10:28:53,42.805,6.029,4330,1995,198.854,60.810,13.286
2017-10-13T10:31:53,42.805,6.029,4330,1995,198.627,60.741,13.286
2017-10-13T10:34:53,42.805,6.029,4330,1995,198.949,60.840,13.287
2017-10-13T10:37:53,42.805,6.029,4330,1995,198.959,60.842,13.286
2017-10-13T10:40:53,42.805,6.029,4330,1995,199.123,60.892,13.286
2017-10-13T10:43:53,42.805,6.029,4330,1995,198.935,60.834,13.286
2017-10-13T10:46:53,42.805,6.029,4330,1995,199.078,60.878,13.286
2017-10-13T10:49:53,42.805,6.029,4330,1995,199.188,60.912,13.286
2017-10-13T10:52:53,42.805,6.029,4330,1995,198.930,60.833,13.286
2017-10-13T10:55:53,42.805,6.029,4330,1995,199.031,60.865,13.287
2017-10-13T10:58:53,42.805,6.029,4330,1995,198.869,60.815,13.287
2017-10-13T11:01:53,42.805,6.029,4330,1995,198.940,60.836,13.286
2017-10-13T11:04:53,42.805,6.029,4330,1995,199.249,60.931,13.286
2017-10-13T11:07:53,42.805,6.029,4330,1995,199.181,60.909,13.286
2017-10-13T11:10:53,42.805,6.029,4330,1995,199.394,60.974,13.286
2017-10-13T11:13:53,42.805,6.029,4330,1995,199.317,60.953,13.287
2017-10-13T11:16:53,42.805,6.029,4330,1995,199.181,60.909,13.286
2017-10-13T11:19:53,42.805,6.029,4330,1995,199.125,60.895,13.287
2017-10-13T11:22:53,42.805,6.029,4330,1995,199.135,60.896,13.286
2017-10-13T11:25:53,42.805,6.029,4330,1995,199.207,60.917,13.286
2017-10-13T11:28:53,42.805,6.029,4330,1995,199.332,60.956,13.286
2017-10-13T11:31:53,42.805,6.029,4330,1995,199.353,60.962,13.286
2017-10-13T11:34:53,42.805,6.029,4330,1995,199.433,60.987,13.286
2017-10-13T11:37:53,42.805,6.029,4330,1995,199.387,60.973,13.286
2017-10-13T11:40:53,42.805,6.029,4330,1995,199.378,60.970,13.286
2017-10-13T11:43:53,42.805,6.029,4330,1995,199.391,60.973,13.286
2017-10-13T11:46:53,42.805,6.029,4330,1995,199.544,61.020,13.286
2017-10-13T11:49:53,42.805,6.029,4330,1995,199.372,60.968,13.286
2017-10-13T11:52:53,42.805,6.029,4330,1995,199.423,60.984,13.286
2017-10-13T11:55:53,42.805,6.029,4330,1995,199.448,60.991,13.286
2017-10-13T11:58:53,42.805,6.029,4330,1995,199.267,60.936,13.286
2017-10-13T12:01:53,42.805,6.029,4330,1995,199.421,60.983,13.286
2017-10-13T12:04:53,42.805,6.029,4330,1995,199.292,60.945,13.287
2017-10-13T12:07:53,42.805,6.029,4330,1995,199.416,60.982,13.286
2017-10-13T12:10:53,42.805,6.029,4330,1995,199.486,61.002,13.286
2017-10-13T12:13:53,42.805,6.029,4330,1995,199.478,61.000,13.286
2017-10-13T12:16:53,42.805,6.029,4330,1995,199.435,60.987,13.286
2017-10-13T12:19:53,42.805,6.029,4330,1995,199.381,60.970,13.286
2017-10-13T12:22:53,42.805,6.029,4330,1995,199.286,60.941,13.286
2017-10-13T12:25:53,42.805,6.029,4330,1995,199.296,60.945,13.286
2017-10-13T12:28:53,42.805,6.029,4330,1995,199.225,60.923,13.286
2017-10-13T12:31:53,42.805,6.029,4330,1995,199.080,60.879,13.286
2017-10-13T12:34:53,42.805,6.029,4330,1995,199.085,60.880,13.286
2017-10-13T12:37:53,42.805,6.029,4330,1995,199.162,60.904,13.286
2017-10-13T12:40:53,42.805,6.029,4330,1995,199.021,60.860,13.286
2017-10-13T12:43:53,42.805,6.029,4330,1995,199.007,60.856,13.286
2017-10-13T12:46:53,42.805,6.029,4330,1995,199.173,60.907,13.286
2017-10-13T12:49:53,42.805,6.029,4330,1995,199.069,60.875,13.286
2017-10-13T12:52:53,42.805,6.029,4330,1995,199.054,60.871,13.286
2017-10-13T12:55:53,42.805,6.029,4330,1995,199.105,60.886,13.286
2017-10-13T12:58:53,42.805,6.029,4330,1995,199.280,60.940,13.286
2017-10-13T13:01:53,42.805,6.029,4330,1995,199.225,60.923,13.286
2017-10-13T13:04:53,42.805,6.029,4330,1995,199.066,60.874,13.286
2017-10-13T13:07:53,42.805,6.029,4330,1995,199.193,60.913,13.286
2017-10-13T13:10:53,42.805,6.029,4330,1995,199.115,60.889,13.286
2017-10-13T13:13:53,42.805,6.029,4330,1995,198.982,60.848,13.286
2017-10-13T13:16:53,42.805,6.029,4330,1995,199.076,60.877,13.286
2017-10-13T13:19:53,42.805,6.029,4330,1995,199.071,60.875,13.286
2017-10-13T13:22:53,42.805,6.029,4330,1995,198.917,60.829,13.286
2017-10-13T13:25:53,42.805,6.029,4330,1995,199.141,60.898,13.286
2017-10-13T13:28:53,42.805,6.029,4330,1995,199.295,60.944,13.285
2017-10-13T13:31:53,42.805,6.029,4330,1995,199.250,60.930,13.286
2017-10-13T13:34:53,42.805,6.029,4330,1995,199.224,60.922,13.285
2017-10-13T13:37:53,42.805,6.029,4330,1995,199.297,60.945,13.286
2017-10-13T13:40:53,42.805,6.029,4330,1995,199.249,60.930,13.286
2017-10-13T13:43:53,42.805,6.029,4330,1995,199.088,60.881,13.286
2017-10-13T13:46:53,42.805,6.029,4330,1995,199.174,60.907,13.286
2017-10-13T13:49:53,42.805,6.029,4330,1995,199.157,60.902,13.286
2017-10-13T13:52:53,42.805,6.029,4330,1995,199.177,60.908,13.285
2017-10-13T13:55:53,42.805,6.029,4330,1995,199.316,60.950,13.286
2017-10-13T13:58:53,42.805,6.029,4330,1995,199.378,60.969,13.286
2017-10-13T14:01:53,42.805,6.029,4330,1995,199.353,60.962,13.286
2017-10-13T14:04:53,42.805,6.029,4330,1995,199.516,61.011,13.285
2017-10-13T14:07:53,42.805,6.029,4330,1995,199.496,61.005,13.285
2017-10-13T14:10:53,42.805,6.029,4330,1995,199.407,60.978,13.286
2017-10-13T14:13:53,42.805,6.029,4330,1995,199.487,61.003,13.286
2017-10-13T14:16:53,42.805,6.029,4330,1995,199.555,61.023,13.286
2017-10-13T14:19:53,42.805,6.029,4330,1995,199.669,61.058,13.285
2017-10-13T14:22:53,42.805,6.029,4330,1995,199.650,61.052,13.286
2017-10-13T14:25:53,42.805,6.029,4330,1995,199.660,61.056,13.286
2017-10-13T14:28:53,42.805,6.029,4330,1995,199.584,61.032,13.285
2017-10-13T14:31:53,42.805,6.029,4330,1995,199.695,61.066,13.285
2017-10-13T14:34:53,42.805,6.029,4330,1995,199.731,61.077,13.286
2017-10-13T14:37:53,42.805,6.029,4330,1995,199.784,61.093,13.286
2017-10-13T14:40:53,42.805,6.029,4330,1995,199.844,61.112,13.286
2017-10-13T14:43:53,42.805,6.029,4330,1995,199.815,61.103,13.286
2017-10-13T14:46:53,42.805,6.029,4330,1995,199.706,61.069,13.286
2017-10-13T14:49:53,42.805,6.029,4330,1995,199.854,61.115,13.286
2017-10-13T14:52:53,42.805,6.029,4330,1995,199.773,61.090,13.286
2017-10-13T14:55:53,42.805,6.029,4330,1995,199.771,61.090,13.286
2017-10-13T14:58:53,42.805,6.029,4330,1995,199.885,61.124,13.286
2017-10-13T15:01:53,42.805,6.029,4330,1995,199.821,61.104,13.285
2017-10-13T15:04:53,42.805,6.029,4330,1995,199.948,61.144,13.286
2017-10-13T15:07:53,42.805,6.029,4330,1995,199.960,61.147,13.285
2017-10-13T15:10:53,42.805,6.029,4330,1995,199.827,61.106,13.285
2017-10-13T15:13:53,42.805,6.029,4330,1995,199.829,61.107,13.286
2017-10-13T15:16:53,42.805,6.029,4330,1995,199.943,61.142,13.285
2017-10-13T15:19:53,42.805,6.029,4330,1995,199.935,61.140,13.286
2017-10-13T15:22:53,42.805,6.029,4330,1995,200.050,61.174,13.285
2017-10-13T15:25:53,42.805,6.029,4330,1995,199.927,61.137,13.285
2017-10-13T15:28:53,42.805,6.029,4330,1995,200.056,61.176,13.285
2017-10-13T15:31:53,42.805,6.029,4330,1995,200.003,61.160,13.286
2017-10-13T15:34:53,42.805,6.029,4330,1995,200.153,61.206,13.286
2017-10-13T15:37:53,42.805,6.029,4330,1995,200.090,61.187,13.286
2017-10-13T15:40:53,42.805,6.029,4330,1995,200.024,61.167,13.286
2017-10-13T15:43:53,42.805,6.029,4330,1995,200.063,61.179,13.286
2017-10-13T15:46:53,42.805,6.029,4330,1995,200.040,61.171,13.285
2017-10-13T15:49:53,42.805,6.029,4330,1995,200.079,61.183,13.286
2017-10-13T15:52:53,42.805,6.029,4330,1995,200.134,61.201,13.286
2017-10-13T15:55:53,42.805,6.029,4330,1995,200.120,61.196,13.285
2017-10-13T15:58:53,42.805,6.029,4330,1995,199.985,61.155,13.286
2017-10-13T16:01:53,42.805,6.029,4330,1995,200.142,61.202,13.285
2017-10-13T16:04:53,42.805,6.029,4330,1995,200.118,61.195,13.286
2017-10-13T16:07:53,42.805,6.029,4330,1995,200.062,61.179,13.286
2017-10-13T16:10:53,42.805,6.029,4330,1995,200.133,61.200,13.286
2017-10-13T16:13:53,42.805,6.029,4330,1995,200.114,61.194,13.286
2017-10-13T16:16:53,42.805,6.029,4330,1995,200.058,61.178,13.286
2017-10-13T16:19:53,42.805,6.029,4330,1995,200.072,61.181,13.285
2017-10-13T16:22:53,42.805,6.029,4330,1995,200.059,61.177,13.285
2017-10-13T16:25:53,42.805,6.029,4330,1995,200.184,61.215,13.285
2017-10-13T16:28:53,42.805,6.029,4330,1995,200.214,61.225,13.285
2017-10-13T16:31:53,42.805,6.029,4330,1995,200.176,61.214,13.286
2017-10-13T16:34:53,42.805,6.029,4330,1995,200.176,61.213,13.286
2017-10-13T16:37:53,42.805,6.029,4330,1995,200.166,61.211,13.286
2017-10-13T16:40:53,42.805,6.029,4330,1995,200.072,61.181,13.285
2017-10-13T16:43:53,42.805,6.029,4330,1995,200.197,61.220,13.286
2017-10-13T16:46:53,42.805,6.029,4330,1995,200.145,61.204,13.286
2017-10-13T16:49:53,42.805,6.029,4330,1995,200.175,61.213,13.285
2017-10-13T16:52:53,42.805,6.029,4330,1995,200.149,61.205,13.286
2017-10-13T16:55:53,42.805,6.029,4330,1995,200.151,61.205,13.285
2017-10-13T16:58:53,42.805,6.029,4330,1995,200.239,61.232,13.285
2017-10-13T17:01:53,42.805,6.029,4330,1995,200.210,61.223,13.285
2017-10-13T17:04:53,42.805,6.029,4330,1995,200.253,61.236,13.285
2017-10-13T17:07:53,42.805,6.029,4330,1995,200.171,61.211,13.285
2017-10-13T17:10:53,42.805,6.029,4330,1995,200.254,61.237,13.285
2017-10-13T17:13:53,42.805,6.029,4330,1995,200.204,61.222,13.285
2017-10-13T17:16:53,42.805,6.029,4330,1995,200.254,61.237,13.285
2017-10-13T17:19:53,42.805,6.029,4330,1995,200.232,61.230,13.285
2017-10-13T17:22:53,42.805,6.029,4330,1995,200.255,61.237,13.285
2017-10-13T17:25:53,42.805,6.029,4330,1995,200.221,61.227,13.285
2017-10-13T17:28:53,42.805,6.029,4330,1995,200.190,61.217,13.285
2017-10-13T17:31:53,42.805,6.029,4330,1995,200.197,61.220,13.286
2017-10-13T17:34:53,42.805,6.029,4330,1995,200.153,61.206,13.285
2017-10-13T17:37:53,42.805,6.029,4330,1995,200.209,61.223,13.285
2017-10-13T17:40:53,42.805,6.029,4330,1995,200.190,61.217,13.286
2017-10-13T17:43:53,42.805,6.029,4330,1995,200.233,61.231,13.286
2017-10-13T17:46:53,42.805,6.029,4330,1995,200.105,61.192,13.286
2017-10-13T17:49:53,42.805,6.029,4330,1995,200.173,61.212,13.286
2017-10-13T17:52:53,42.805,6.029,4330,1995,200.169,61.211,13.286
2017-10-13T17:55:53,42.805,6.029,4330,1995,200.254,61.237,13.285
2017-10-13T17:58:53,42.805,6.029,4330,1995,200.199,61.221,13.286
2017-10-13T18:01:53,42.805,6.029,4330,1995,200.175,61.214,13.286
2017-10-13T18:04:53,42.805,6.029,4330,1995,200.214,61.225,13.285
2017-10-13T18:07:53,42.805,6.029,4330,1995,200.169,61.212,13.286